Location: Leuk
(46.3174°N, 7.6341°E)
Time: 07:31:26
(UTC+00:00)

YAOGAN 6 - Pass Details

Date: 09 March 2021
Orbit: 464 x 503 km, 97.0° (Epoch: 18 April)

Event Time Altitude Azimuth Distance (km) Brightness Sun altitude
Rises 04:59:35 0° 16° (NNE) 2,527 6.5 -10.2°
Reaches altitude 10° 05:01:41 10° 21° (NNE) 1,640 5.6 -9.8°
Maximum altitude 05:05:09 55° 100° (E) 570 3.3 -9.2°
Drops below altitude 10° 05:08:33 10° 179° (S) 1,615 5.2 -8.6°
Sets 05:10:36 0° 184° (S) 2,484 6.1 -8.3°
